[[{"header":{"parameterUnit":"m.s-1","parameterCategory":2,"la1":30.2992,"la2":30.254,"lo1":-89.0895,"lo2":-89.0443,"dy":0.0025,"dx":0.0025,"nx":19,"ny":19,"refTime":"2026-03-30T03:00:00:Z","depth":"0","parameterNumber":2,"parameterNumberName":"U-component_of_CURRENTS"},"data":[0,0,0,-0.1394,-0.1395,-0.1385,-0.1385,-0.1229,-0.1228,0,0,0,0,0,0,0,0,0,0,0,-0.1381,-0.1381,-0.1394,-0.1395,-0.1385,-0.1385,-0.1229,-0.1228,0,0,0,0,0,0,0,0,0,0,0,-0.1381,-0.1381,-0.1381,-0.1395,-0.1386,-0.1385,-0.123,-0.1265,0,0,0,0,0,0,0,0,0,0,-0.1289,-0.1311,-0.1381,-0.1381,-0.1395,-0.1386,-0.1385,-0.1268,-0.1263,-0.1202,0,-0.1213,0,-0.1234,-0.1217,-0.1216,0,0,0,-0.1365,-0.1315,-0.1319,-0.1381,-0.1396,-0.1386,-0.1381,-0.1266,-0.126,-0.1194,-0.1211,-0.1207,-0.1231,-0.1216,-0.1215,-0.1155,-0.1156,0,0,-0.1365,-0.1365,-0.1324,-0.1316,-0.1406,-0.1382,-0.1381,-0.1264,-0.1255,-0.1211,-0.1204,-0.1229,-0.1214,-0.1213,-0.1155,-0.1156,0,0,0,-0.1387,-0.1365,-0.1374,-0.1321,-0.1341,-0.1382,-0.1382,-0.126,-0.1266,-0.1203,-0.1227,-0.1214,-0.1212,-0.1154,-0.1155,-0.1228,0,0,0,-0.1386,-0.1381,-0.1374,-0.1371,-0.1344,-0.1322,-0.138,-0.1273,-0.1262,-0.1228,-0.1213,-0.121,-0.1154,-0.1155,-0.1225,-0.1203,0,0,0,-0.1379,-0.138,-0.1385,-0.1372,-0.1385,-0.1325,-0.1323,-0.1272,-0.1277,-0.1216,-0.1209,-0.1153,-0.1154,-0.1222,-0.12,-0.1147,0,0,0,-0.1368,-0.14,-0.1385,-0.141,-0.1386,-0.1379,-0.1324,-0.1298,-0.1252,-0.1213,-0.1154,-0.1155,-0.1221,-0.1198,-0.1147,-0.0997,-0.0989,0,0,-0.1408,-0.1404,-0.1417,-0.1405,-0.1407,-0.1378,-0.138,-0.13,-0.1252,-0.1174,-0.1174,-0.1226,-0.12,-0.1147,-0.1076,-0.1065,0,0,0,-0.1429,-0.1429,-0.1427,-0.1422,-0.1413,-0.139,-0.1347,-0.1338,-0.1297,-0.124,-0.1233,-0.1213,-0.1178,-0.1087,-0.1079,-0.1026,-0.1161,-0.1161,-0.1161,-0.1459,-0.1448,-0.1426,-0.1407,-0.1407,-0.1396,-0.1386,-0.1361,-0.1324,-0.1342,-0.1281,-0.1296,-0.1206,-0.1196,-0.1147,-0.1318,-0.1318,-0.1318,-0.1318,-0.1439,-0.1384,-0.1382,-0.1351,-0.1346,-0.1341,-0.1377,-0.1389,-0.1368,-0.1366,-0.1329,-0.1179,-0.1191,-0.1141,-0.1323,-0.1322,-0.1322,-0.1321,-0.1321,-0.1393,-0.1348,-0.1338,-0.1268,-0.1259,-0.1281,-0.1293,-0.1348,-0.1364,-0.1369,-0.119,-0.1187,-0.1126,-0.1331,-0.1331,-0.133,-0.133,-0.133,-0.133,-0.1297,-0.1285,-0.1205,-0.1162,-0.1152,-0.1164,-0.123,-0.1235,-0.1201,-0.1207,-0.1205,-0.1117,-0.1297,-0.1277,-0.1326,-0.1326,-0.1327,-0.1327,-0.1328,-0.1124,-0.1145,-0.1057,-0.1028,-0.1017,-0.1011,-0.1095,-0.1031,-0.1032,-0.0967,-0.0948,-0.1109,-0.104,-0.1045,-0.1018,-0.0996,-0.0996,-0.0996,-0.0996,-0.0995,-0.0992,-0.0895,-0.0878,-0.0897,-0.0947,-0.0847,-0.0801,-0.0759,-0.0724,-0.0788,-0.0786,-0.0801,-0.0721,-0.0733,-0.07,-0.0598,-0.0598,-0.0597,-0.0808,-0.0842,-0.0742,-0.0775,-0.084,-0.0853,-0.0687,-0.0539,-0.0518,-0.0584,-0.0749,-0.0765,-0.0773,-0.0802,-0.0685,-0.0706,-0.0655,0,0]},{"header":{"parameterUnit":"m.s-1","parameterCategory":2,"la1":30.2992,"la2":30.254,"lo1":-89.0895,"lo2":-89.0443,"dy":0.0025,"dx":0.0025,"nx":19,"ny":19,"refTime":"2026-03-30T03:00:00:Z","depth":"0","parameterNumber":3,"parameterNumberName":"V-component_of_CURRENTS"},"data":[0,0,0,-0.0344,-0.0343,-0.0291,-0.0291,-0.0192,-0.0192,0,0,0,0,0,0,0,0,0,0,0,-0.0363,-0.0363,-0.0344,-0.0343,-0.0291,-0.0291,-0.0193,-0.0192,0,0,0,0,0,0,0,0,0,0,0,-0.0363,-0.0363,-0.0363,-0.0343,-0.0292,-0.0291,-0.0193,-0.0237,0,0,0,0,0,0,0,0,0,0,-0.029,-0.0315,-0.0363,-0.0363,-0.0343,-0.0292,-0.0291,-0.0239,-0.0234,-0.021,0,-0.0212,0,-0.0203,-0.0185,-0.0185,0,0,0,-0.0331,-0.032,-0.0309,-0.0363,-0.0343,-0.0292,-0.0311,-0.0237,-0.0231,-0.0204,-0.0211,-0.0207,-0.0202,-0.0185,-0.0184,-0.0088,-0.0087,0,0,-0.0334,-0.0346,-0.0314,-0.0306,-0.034,-0.0313,-0.031,-0.0233,-0.0229,-0.021,-0.0205,-0.02,-0.0184,-0.0183,-0.0088,-0.0088,0,0,0,-0.035,-0.0348,-0.0339,-0.031,-0.0305,-0.0312,-0.0308,-0.0232,-0.0231,-0.0204,-0.0199,-0.0184,-0.0182,-0.0088,-0.0088,-0.0079,0,0,0,-0.0352,-0.0358,-0.0341,-0.0346,-0.0307,-0.0272,-0.0309,-0.0236,-0.0228,-0.0199,-0.0184,-0.0182,-0.0089,-0.0088,-0.008,-0.0064,0,0,0,-0.0364,-0.0359,-0.0358,-0.0347,-0.033,-0.0274,-0.0267,-0.0234,-0.0225,-0.0185,-0.0181,-0.0089,-0.0088,-0.0081,-0.0066,0.0034,0,0,0,-0.037,-0.0399,-0.0358,-0.0372,-0.0331,-0.0301,-0.0268,-0.0237,-0.0207,-0.0183,-0.0089,-0.0088,-0.0081,-0.0067,0.0032,0.0032,0.0044,0,0,-0.0417,-0.0404,-0.0409,-0.0373,-0.0353,-0.0307,-0.026,-0.0208,-0.0181,-0.011,-0.0108,-0.008,-0.0066,0.0034,0.0081,0.0092,0,0,0,-0.0431,-0.0433,-0.042,-0.0391,-0.0351,-0.0282,-0.0236,-0.0187,-0.0114,-0.0161,-0.0065,-0.0056,0.0007,0.0002,0.001,0.0046,-0.0084,-0.0084,-0.0084,-0.0513,-0.0469,-0.0452,-0.0391,-0.0358,-0.0259,-0.0189,-0.0109,-0.0106,-0.0064,-0.0038,0.0058,0.0049,0.0056,0.0092,-0.0032,-0.0032,-0.0032,-0.0032,-0.0546,-0.0513,-0.0447,-0.0415,-0.0323,-0.0271,-0.0133,-0.0091,0.0044,0.0004,0.0065,0.0023,0.0067,0.0101,-0.0031,-0.0031,-0.0031,-0.0031,-0.0031,-0.0577,-0.0545,-0.0516,-0.0427,-0.0353,-0.0261,-0.0126,-0.0038,0.0058,0.0119,0.0159,0.0159,0.0186,0.0156,0.0157,0.0157,0.0158,0.0158,0.0159,-0.0592,-0.0557,-0.0507,-0.0427,-0.0386,-0.0288,-0.0112,0.0003,0.0145,0.0192,0.0193,0.0225,0.0117,0.0106,0.0166,0.0165,0.0164,0.0163,0.0163,-0.0558,-0.0544,-0.0496,-0.0453,-0.0345,-0.0249,-0.0104,0.012,0.0255,0.0327,0.0344,0.0259,0.0275,0.0267,0.0261,0.0359,0.0359,0.0359,0.0359,-0.0522,-0.051,-0.0449,-0.0407,-0.032,-0.0226,-0.0015,0.0169,0.0355,0.0422,0.0446,0.0377,0.0368,0.0385,0.0375,0.037,0.0493,0.0493,0.0493,-0.0437,-0.0456,-0.0408,-0.0391,-0.0318,-0.0182,-0.0004,0.0199,0.0429,0.0503,0.0503,0.0497,0.0396,0.0378,0.0399,0.0381,0.0369,0,0]}],[{"header":{"parameterUnit":"m.s-1","parameterCategory":2,"la1":30.2992,"la2":30.254,"lo1":-89.0895,"lo2":-89.0443,"dy":0.0025,"dx":0.0025,"nx":19,"ny":19,"refTime":"2026-03-30T03:00:00:Z","depth":"2","parameterNumber":2,"parameterNumberName":"U-component_of_CURRENTS"},"data":[0,0,0,-0.121,-0.1211,-0.1229,-0.1229,-0.1067,-0.1066,0,0,0,0,0,0,0,0,0,0,0,-0.1198,-0.1199,-0.121,-0.1211,-0.1229,-0.1229,-0.1068,-0.1066,0,0,0,0,0,0,0,0,0,0,0,-0.1198,-0.1199,-0.12,-0.1211,-0.123,-0.1229,-0.1068,-0.1095,0,0,0,0,0,0,0,0,0,0,-0.1098,-0.1117,-0.1199,-0.12,-0.1212,-0.123,-0.1229,-0.1098,-0.1093,-0.1014,0,-0.1036,0,-0.1055,-0.1053,-0.1052,0,0,0,-0.1187,-0.1122,-0.1137,-0.12,-0.1212,-0.123,-0.1214,-0.1096,-0.1091,-0.1006,-0.1034,-0.1029,-0.1052,-0.1052,-0.1051,-0.0963,-0.0963,0,0,-0.1186,-0.1181,-0.1141,-0.1134,-0.1237,-0.1214,-0.1215,-0.1095,-0.1086,-0.1034,-0.1027,-0.105,-0.105,-0.1049,-0.0962,-0.0963,0,0,0,-0.12,-0.118,-0.1201,-0.1139,-0.1162,-0.1215,-0.1217,-0.1091,-0.1103,-0.1025,-0.1048,-0.1049,-0.1047,-0.0962,-0.0963,-0.1014,0,0,0,-0.1198,-0.119,-0.1201,-0.1195,-0.1166,-0.1152,-0.1216,-0.1111,-0.1099,-0.1049,-0.1049,-0.1045,-0.0961,-0.0962,-0.1011,-0.0982,0,0,0,-0.1194,-0.1189,-0.1201,-0.1195,-0.1216,-0.1155,-0.1159,-0.111,-0.1112,-0.1052,-0.1044,-0.0961,-0.0962,-0.1009,-0.098,-0.0929,0,0,0,-0.1172,-0.1223,-0.1201,-0.124,-0.1217,-0.1213,-0.1161,-0.1135,-0.109,-0.1048,-0.0962,-0.0963,-0.1008,-0.0978,-0.0929,-0.0771,-0.0759,0,0,-0.1232,-0.1229,-0.125,-0.1232,-0.1236,-0.1208,-0.12,-0.1124,-0.1079,-0.0982,-0.0981,-0.1012,-0.0979,-0.0929,-0.0837,-0.0823,0,0,0,-0.1264,-0.1268,-0.1266,-0.1259,-0.1246,-0.1205,-0.1165,-0.1149,-0.1099,-0.1065,-0.1021,-0.0998,-0.0964,-0.087,-0.0859,-0.0968,-0.0968,-0.0968,-0.0968,-0.1313,-0.1294,-0.1271,-0.1239,-0.1231,-0.1199,-0.1176,-0.1141,-0.1111,-0.1121,-0.1049,-0.1052,-0.0957,-0.0945,-0.1086,-0.1086,-0.1086,-0.1087,-0.1087,-0.13,-0.1235,-0.1217,-0.118,-0.1147,-0.1127,-0.1133,-0.1143,-0.1107,-0.1112,-0.1079,-0.094,-0.0936,-0.1091,-0.109,-0.109,-0.1089,-0.1089,-0.1089,-0.1245,-0.1194,-0.1179,-0.1092,-0.1056,-0.1054,-0.1035,-0.1075,-0.1089,-0.1085,-0.0922,-0.0919,-0.1026,-0.1058,-0.1058,-0.1057,-0.1057,-0.1057,-0.1057,-0.1139,-0.1122,-0.1038,-0.0978,-0.0951,-0.093,-0.0968,-0.096,-0.0916,-0.0916,-0.0915,-0.104,-0.1041,-0.1022,-0.1052,-0.1053,-0.1053,-0.1054,-0.1054,-0.0959,-0.0983,-0.0887,-0.0844,-0.079,-0.0751,-0.0816,-0.0739,-0.0735,-0.0667,-0.0809,-0.0816,-0.0757,-0.0764,-0.0738,-0.0692,-0.0692,-0.0692,-0.0692,-0.0831,-0.0827,-0.0719,-0.0675,-0.0644,-0.0665,-0.0549,-0.05,-0.0512,-0.0509,-0.0517,-0.0525,-0.0542,-0.0472,-0.0486,-0.0455,-0.0335,-0.0335,-0.0335,-0.065,-0.0676,-0.0566,-0.057,-0.0573,-0.055,-0.0391,-0.0258,-0.0238,-0.0328,-0.0528,-0.0654,-0.0688,-0.0707,-0.0619,-0.0634,-0.0592,0,0]},{"header":{"parameterUnit":"m.s-1","parameterCategory":2,"la1":30.2992,"la2":30.254,"lo1":-89.0895,"lo2":-89.0443,"dy":0.0025,"dx":0.0025,"nx":19,"ny":19,"refTime":"2026-03-30T03:00:00:Z","depth":"2","parameterNumber":3,"parameterNumberName":"V-component_of_CURRENTS"},"data":[0,0,0,-0.0385,-0.0385,-0.0326,-0.0325,-0.0203,-0.0202,0,0,0,0,0,0,0,0,0,0,0,-0.0406,-0.0406,-0.0385,-0.0385,-0.0326,-0.0325,-0.0204,-0.0202,0,0,0,0,0,0,0,0,0,0,0,-0.0406,-0.0406,-0.0406,-0.0384,-0.0326,-0.0325,-0.0204,-0.0256,0,0,0,0,0,0,0,0,0,0,-0.0318,-0.035,-0.0406,-0.0406,-0.0384,-0.0326,-0.0325,-0.0259,-0.0253,-0.0221,0,-0.0223,0,-0.0215,-0.0194,-0.0194,0,0,0,-0.037,-0.0355,-0.0341,-0.0406,-0.0384,-0.0326,-0.0348,-0.0256,-0.0249,-0.0213,-0.0221,-0.0217,-0.0213,-0.0194,-0.0193,-0.0082,-0.0082,0,0,-0.0373,-0.0388,-0.0346,-0.0337,-0.0381,-0.035,-0.0346,-0.0252,-0.0248,-0.0221,-0.0214,-0.0211,-0.0193,-0.0192,-0.0082,-0.0082,0,0,0,-0.0392,-0.0391,-0.0379,-0.0342,-0.0338,-0.0349,-0.0344,-0.0252,-0.0249,-0.0213,-0.0209,-0.0192,-0.0191,-0.0083,-0.0082,-0.0096,0,0,0,-0.0394,-0.0403,-0.0381,-0.0388,-0.034,-0.0301,-0.0347,-0.0256,-0.0245,-0.021,-0.0192,-0.019,-0.0083,-0.0082,-0.0096,-0.0101,0,0,0,-0.0406,-0.0404,-0.0402,-0.0389,-0.0371,-0.0303,-0.0294,-0.0253,-0.0243,-0.0194,-0.0189,-0.0083,-0.0083,-0.0097,-0.0101,-0.0034,0,0,0,-0.0416,-0.0436,-0.0402,-0.0404,-0.0371,-0.0322,-0.0294,-0.025,-0.0211,-0.0192,-0.0083,-0.0082,-0.0097,-0.0101,-0.0036,-0.0033,-0.0027,0,0,-0.0452,-0.0441,-0.0437,-0.0406,-0.0366,-0.0329,-0.0277,-0.0219,-0.0185,-0.0109,-0.0107,-0.0096,-0.0101,-0.0035,0.0013,0.0018,0,0,0,-0.0454,-0.045,-0.0431,-0.0395,-0.0348,-0.0293,-0.0238,-0.02,-0.0132,-0.0161,-0.0076,-0.0078,-0.0036,-0.0037,-0.0032,-0.0078,-0.0079,-0.0079,-0.0079,-0.0524,-0.0474,-0.0445,-0.038,-0.0343,-0.0259,-0.0208,-0.0143,-0.0119,-0.0089,-0.0074,-0.0015,-0.0017,-0.0013,-0.0058,-0.0058,-0.0058,-0.0058,-0.0058,-0.0538,-0.05,-0.0438,-0.0395,-0.0322,-0.0273,-0.0173,-0.0141,-0.0042,-0.0054,-0.0012,-0.0034,-0.001,-0.0059,-0.0058,-0.0058,-0.0058,-0.0058,-0.0058,-0.0556,-0.0525,-0.0494,-0.0411,-0.0356,-0.0282,-0.0201,-0.0133,-0.005,-0.0013,0.0033,0.0033,-0.0009,0.0022,0.0022,0.0022,0.0022,0.0023,0.0023,-0.0569,-0.0533,-0.0491,-0.042,-0.0393,-0.0332,-0.0208,-0.0128,-0.0014,0.0032,0.0033,0.0013,0.0011,-0.0002,0.0027,0.0026,0.0026,0.0025,0.0025,-0.053,-0.0527,-0.0486,-0.0456,-0.039,-0.0333,-0.0233,-0.0059,0.0041,0.0104,0.0082,0.0079,0.0097,0.0093,0.0083,0.0133,0.0133,0.0133,0.0133,-0.0505,-0.0495,-0.0457,-0.0439,-0.0398,-0.0334,-0.0177,-0.0023,0.01,0.0133,0.0133,0.0091,0.0087,0.0102,0.0098,0.0088,0.0139,0.0139,0.0139,-0.0438,-0.0456,-0.0429,-0.0431,-0.0406,-0.0318,-0.0164,0.0034,0.0158,0.0138,0.0125,0.0136,0.0072,0.0066,0.0086,0.0081,0.0063,0,0]}],[{"header":{"parameterUnit":"m.s-1","parameterCategory":2,"la1":30.2992,"la2":30.254,"lo1":-89.0895,"lo2":-89.0443,"dy":0.0025,"dx":0.0025,"nx":19,"ny":19,"refTime":"2026-03-30T03:00:00:Z","depth":"4","parameterNumber":2,"parameterNumberName":"U-component_of_CURRENTS"},"data":[0,0,0,-0.0029,-0.0026,0.0078,0.0078,0.0081,0.0081,0,0,0,0,0,0,0,0,0,0,0,-0.007,-0.0069,-0.0029,-0.0026,0.0078,0.0078,0.0081,0.0081,0,0,0,0,0,0,0,0,0,0,0,-0.007,-0.0069,-0.0068,-0.0026,0.0078,0.0078,0.0081,0.0034,0,0,0,0,0,0,0,0,0,0,-0.0051,-0.0069,-0.0069,-0.0068,-0.0025,0.0078,0.0078,0.0033,0.0037,-0.0002,0,0.0019,0,0.0051,0.0078,0.0078,0,0,0,-0.003,-0.0072,-0.0042,-0.0068,-0.0024,0.0078,0.003,0.0036,0.004,0.0002,0.002,0.0021,0.0051,0.0078,0.0078,-0.027,-0.0273,0,0,-0.0036,-0.0056,-0.0045,-0.004,0.0007,0.0027,0.0033,0.004,0.0041,0.002,0.0022,0.0051,0.0078,0.0078,-0.0266,-0.0271,0,0,0,-0.005,-0.0061,-0.0028,-0.0041,-0.0011,0.003,0.0037,0.0041,0.0053,0.0022,0.0051,0.0078,0.0077,-0.0262,-0.0268,-0.025,0,0,0,-0.0053,-0.0068,-0.0031,-0.0043,-0.001,0.0035,0.0038,0.0053,0.0055,0.0051,0.0078,0.0077,-0.0258,-0.0265,-0.0242,-0.0194,0,0,0,-0.0075,-0.007,-0.0056,-0.0044,0.0004,0.0036,0.0049,0.0055,0.0072,0.0078,0.0077,-0.0256,-0.0264,-0.0234,-0.0185,-0.0129,0,0,0,-0.0104,-0.0075,-0.0057,-0.0026,0.0003,-0.0031,0.005,0.0031,0.0024,0.0077,-0.0259,-0.0267,-0.0232,-0.018,-0.0126,0.0032,0,0,0,-0.0084,-0.0074,-0.0058,-0.0038,-0.0096,-0.0046,-0.0157,-0.0116,-0.0136,-0.026,-0.0267,-0.0244,-0.0185,-0.0128,-0.0472,0,0,0,0,-0.0062,-0.0073,-0.0075,-0.0106,-0.0124,-0.0219,-0.0219,-0.0226,-0.0325,-0.0175,-0.0423,-0.0389,-0.0348,-0.0262,-0.0309,-0.0307,-0.0306,-0.0305,-0.0305,-0.0101,-0.0123,-0.0184,-0.0259,-0.0303,-0.0375,-0.0402,-0.047,-0.0461,-0.0562,-0.0506,-0.0634,-0.0567,-0.0683,-0.0683,-0.0683,-0.0683,-0.0683,-0.0683,-0.0176,-0.0235,-0.032,-0.0389,-0.051,-0.0612,-0.0651,-0.0631,-0.0657,-0.069,-0.0651,-0.0423,-0.0686,-0.0686,-0.0685,-0.0685,-0.0685,-0.0685,-0.0684,-0.024,-0.0288,-0.0345,-0.0495,-0.0614,-0.069,-0.0646,-0.066,-0.0661,-0.0629,-0.051,-0.0618,-0.0455,-0.0606,-0.0606,-0.0606,-0.0605,-0.0605,-0.0605,-0.0298,-0.0368,-0.0436,-0.0565,-0.0597,-0.0615,-0.0603,-0.0544,-0.0554,-0.049,-0.0615,-0.0606,-0.0609,-0.0458,-0.0599,-0.06,-0.0601,-0.0602,-0.0602,-0.0366,-0.0367,-0.0422,-0.0458,-0.0492,-0.0465,-0.0484,-0.0381,-0.0303,-0.0252,-0.0397,-0.0409,-0.0364,-0.0372,-0.0207,-0.0279,-0.0278,-0.0276,0,-0.0376,-0.0402,-0.0392,-0.036,-0.0315,-0.0346,-0.0211,-0.0172,-0.0192,-0.0195,-0.029,-0.0457,-0.0464,-0.0419,-0.0423,-0.0236,0,0,0,-0.0414,-0.0387,-0.034,-0.0298,-0.0217,-0.0144,-0.0155,-0.0109,-0.0235,-0.0119,-0.0234,-0.0245,-0.0426,-0.0584,-0.0542,-0.0545,-0.0297,0,0]},{"header":{"parameterUnit":"m.s-1","parameterCategory":2,"la1":30.2992,"la2":30.254,"lo1":-89.0895,"lo2":-89.0443,"dy":0.0025,"dx":0.0025,"nx":19,"ny":19,"refTime":"2026-03-30T03:00:00:Z","depth":"4","parameterNumber":3,"parameterNumberName":"V-component_of_CURRENTS"},"data":[0,0,0,0.0031,0.003,-0.001,-0.001,0.0077,0.0078,0,0,0,0,0,0,0,0,0,0,0,0.0055,0.0055,0.0031,0.003,-0.001,-0.001,0.0077,0.0078,0,0,0,0,0,0,0,0,0,0,0,0.0055,0.0055,0.0055,0.003,-0.001,-0.001,0.0077,0.0073,0,0,0,0,0,0,0,0,0,0,0.0095,0.0083,0.0055,0.0055,0.003,-0.001,-0.001,0.0072,0.0074,0.0134,0,0.0128,0,0.0103,0.0087,0.0087,0,0,0,0.0034,0.0081,0.0082,0.0055,0.0029,-0.001,0.0009,0.0072,0.0074,0.0137,0.0129,0.0131,0.0105,0.0088,0.0088,0.0131,0.0131,0,0,0.0036,0.004,0.008,0.0083,0.0024,0.001,0.0008,0.0072,0.0073,0.0129,0.0132,0.0106,0.0089,0.009,0.0132,0.0131,0,0,0,0.004,0.0042,0.0038,0.0081,0.0061,0.0009,0.0006,0.007,0.0072,0.0133,0.0107,0.0089,0.0091,0.0132,0.0132,0.0072,0,0,0,0.0041,0.0043,0.0039,0.004,0.0059,0.0042,0.0004,0.0067,0.0073,0.0107,0.0089,0.0092,0.0133,0.0132,0.0075,0.0046,0,0,0,0.0056,0.0044,0.0043,0.004,0.002,0.004,0.0044,0.0067,0.0059,0.0087,0.0092,0.0133,0.0132,0.0077,0.0051,0.0017,0,0,0,0.0057,0.0046,0.0043,0.0028,0.0021,0.0014,0.0043,0.0055,0.0079,0.009,0.0133,0.0132,0.0078,0.0053,0.002,0.0055,0,0,0,0.0043,0.0045,0.0036,0.0033,0.0007,0.0019,-0.0008,0.0043,0.0078,0.0125,0.0124,0.0074,0.0051,0.0018,-0.0014,0,0,0,0,0.0032,0.0024,0.0021,0.0001,0.0002,-0.0027,0.0008,0.0019,0.0036,0.0084,0.0066,0.0054,0.0035,0.0063,0.0126,0.0126,0.0126,0.0126,0.0127,0.0017,0.0007,-0.0025,-0.0042,-0.0045,-0.0047,-0.0062,-0.0045,0.0016,0.0003,-0.0,-0.0074,-0.0047,-0.0004,-0.0005,-0.0005,-0.0005,-0.0005,-0.0005,-0.0027,-0.0064,-0.0076,-0.0115,-0.0132,-0.0145,-0.0134,-0.0113,-0.0119,-0.0068,-0.0083,-0.0008,-0.0012,-0.001,-0.0009,-0.0009,-0.0008,-0.0008,-0.0008,-0.005,-0.0082,-0.0105,-0.0174,-0.0212,-0.0212,-0.0241,-0.0209,-0.018,-0.0196,-0.0144,-0.0117,-0.0106,-0.019,-0.0191,-0.0191,-0.0191,-0.0191,-0.0192,-0.0091,-0.0118,-0.0176,-0.0236,-0.0266,-0.0297,-0.029,-0.0295,-0.0258,-0.0215,-0.0203,-0.0136,-0.013,-0.0116,-0.0196,-0.0195,-0.0195,-0.0194,-0.0194,-0.017,-0.0165,-0.0231,-0.0273,-0.0346,-0.0356,-0.0357,-0.0327,-0.0334,-0.0312,-0.0226,-0.0223,-0.0197,-0.019,-0.0176,-0.0277,-0.0276,-0.0276,0,-0.0213,-0.0225,-0.0288,-0.0338,-0.0388,-0.0389,-0.0382,-0.0374,-0.0327,-0.0302,-0.0352,-0.0257,-0.0252,-0.0224,-0.0217,-0.0203,0,0,0,-0.0286,-0.0276,-0.0325,-0.0358,-0.04,-0.0382,-0.0378,-0.0355,-0.0318,-0.0314,-0.0273,-0.0273,-0.0265,-0.0209,-0.0163,-0.0155,-0.013,0,0]}]]